Espaço - Ciências - Fenômenos Naturais
Meteógrafos Informações Meteorológicas em tempo real

Aeroporto Internacional de Viracopos

Histórico do Tempo
Temperatura atual: 19 graus 66 F    Umidade relativa: 68 %
Velocidade do vento: 07 nós 12 Km/h    Direção: 010 graus N
Ajuste do altímetro ..: 1013 HPA
Visibilidade: Ótima    Tempo presente: Parcialmente Nublado

Observação
Nuvens esparsas a 4000 Pés., Céu nublado a 6000 Pés.

Data Hora BRTTempo°CUmidadePressãoVentoVisib.
24/05 - 07:56   Parcialmente Nublado 19° 68% 1013 Norte/12 km/h OK
24/05 - 06:56   Parcialmente Nublado 20° 60% 1013 Norte-nordeste/10 km/h OK
24/05 - 05:56   Céu Limpo 17° 82% 1012 Leste/9 km/h OK
24/05 - 04:56   Céu Limpo 17° 82% 1013 Leste/10 km/h OK
24/05 - 03:56   Céu Limpo 17° 77% 1013 Este-sudeste/12 km/h OK
24/05 - 02:56   Céu Limpo 18° 72% 1014 Este-sudeste/10 km/h OK
24/05 - 01:56   Céu Limpo 18° 77% 1014 Este-sudeste/12 km/h OK
24/05 - 00:56   Céu Limpo 19° 68% 1015 Este-sudeste/14 km/h OK
23/05 - 23:56   Céu Limpo 20° 64% 1015 Este-sudeste/12 km/h OK
23/05 - 22:56   Céu Limpo 20° 68% 1015 Este-sudeste/12 km/h OK
23/05 - 21:56   Céu Limpo 22° 53% 1016 Este-sudeste/10 km/h OK
23/05 - 20:56   Céu Limpo 21° 60% 1015 Sudeste/9 km/h OK
23/05 - 19:56   Céu Limpo 23° 46% 1015 Este-nordeste/1 km/h OK
23/05 - 18:56   Céu Limpo 25° 36% 1015 Norte/3 km/h OK
23/05 - 17:56   Céu Limpo 26° 32% 1015 Norte-noroeste/5 km/h OK
23/05 - 16:56   Céu Limpo 27° 32% 1014 Norte/7 km/h CAVO
23/05 - 15:56   Céu Limpo 27° 30% 1014 Noroeste/7 km/h CAVO
23/05 - 14:56   Céu Limpo 27° 32% 1014 Norte/9 km/h CAVO
23/05 - 13:56   Céu Limpo 26° 36% 1016 Norte/9 km/h CAVO
23/05 - 12:56   Céu Limpo 25° 41% 1017 Norte/10 km/h CAVO
23/05 - 11:56   Céu Limpo 24° 44% 1018 Norte/12 km/h CAVO
23/05 - 10:56   Céu Limpo 22° 53% 1018 Norte-nordeste/9 km/h CAVO
23/05 - 09:56   Quase sem nuvens 19° 68% 1018 Sudeste/3 km/h 8000
23/05 - 08:56   Quase sem nuvens 15° 82% 1017 Este-sudeste/9 km/h 7000


Apolo11.com - Todos os direitos reservados - 2000 - 2019
Política de Privacidade   |     Termo de Uso e Licenciamento   |  -   Entre em Contato

"Política é a guerra sem sangue enquanto a guerra é a política com sangue" - Mao Tsé-Tung